EW6157 Weather Reports


time (UTC)temp
F
wind
direction
speed
knots
gust
knots
rain 1hr
in
rain 24hr
in
rain mn
in
humidity
%
barometer
mb
20260510184556 55 53 8.7 25.2 0.00 0.00 0.00 76 1016.7
20260510183053 56 44 9.6 20.9 0.00 0.00 0.00 75 1016.4
20260510181553 56 48 7.8 16.5 0.00 0.00 0.00 76 1016.0
20260510180104 55 13 6.1 13.0 0.00 0.00 0.00 78 1015.8
20260510174548 55 12 6.1 12.2 0.00 0.00 0.00 82 1015.1
20260510173047 53 323 7.0 13.9 0.00 0.00 0.00 85 1015.2
20260510171550 53 8 3.5 13.0 0.00 0.00 0.00 87 1015.3
20260510170045 53 314 5.2 11.3 0.00 0.00 0.00 91 1014.8
20260510164548 52 9 4.3 14.8 0.00 0.00 0.00 93 1014.7
20260510163050 51 354 5.2 11.3 0.00 0.00 0.00 92 1014.5
20260510161550 51 44 4.3 13.9 0.00 0.00 0.00 92 1014.3
20260510160045 52 344 4.3 12.2 0.00 0.00 0.00 92 1014.2
20260510154529 53 354 3.5 13.9 0.00 0.00 0.00 91 1014.0
20260510153025 54 18 6.1 16.5 0.00 0.00 0.00 90 1013.3
20260510151521 55 289 4.3 11.3 0.00 0.00 0.00 89 1012.9
20260510150022 55 342 3.5 11.3 0.00 0.00 0.00 89 1012.8
20260510144523 56 337 2.6 9.6 0.00 0.00 0.00 89 1012.6
20260510143017 56 36 5.2 10.4 0.00 0.00 0.00 88 1012.3
20260510141518 57 290 3.5 11.3 0.00 0.00 0.00 85 1012.1
20260510140004 57 354 4.3 11.3 0.00 0.00 0.00 82 1011.9
20260510134501 57 49 6.1 13.9 0.00 0.00 0.00 83 1011.4
20260510133059 57 328 3.5 10.4 0.00 0.00 0.00 82 1011.2
20260510131555 57 261 5.2 12.2 0.00 0.00 0.00 82 1010.7
20260510130051 58 328 5.2 11.3 0.00 0.00 0.00 81 1010.2
20260510124550 59 296 3.5 8.7 0.00 0.00 0.00 82 1009.6
20260510123043 60 101 2.6 7.8 0.00 0.00 0.00 81 1009.2
20260510121541 60 11 4.3 9.6 0.00 0.00 0.00 80 1008.6
20260510120037 60 34 4.3 9.6 0.00 0.00 0.00 79 1008.4
20260510114536 60 25 5.2 10.4 0.00 0.00 0.00 78 1008.0
20260510113034 61 41 2.6 13.0 0.00 0.00 0.00 76 1008.0
20260510111537 61 17 7.8 15.6 0.00 0.00 0.00 77 1007.9
20260510110031 61 37 5.2 14.8 0.00 0.00 0.00 79 1007.8
20260510104535 61 32 5.2 9.6 0.00 0.00 0.00 80 1007.8
20260510103030 60 37 2.6 6.1 0.00 0.00 0.00 81 1007.5
20260510101526 60 49 3.5 7.0 0.00 0.00 0.00 81 1007.0
20260510100024 60 73 7.0 13.9 0.00 0.00 0.00 81 1006.5
20260510094524 61 14 7.8 13.0 0.00 0.00 0.00 80 1006.5
20260510093019 61 42 4.3 12.2 0.00 0.00 0.00 79 1006.3
20260510091515 61 37 6.1 11.3 0.00 0.00 0.00 79 1005.7
20260510090017 62 37 5.2 10.4 0.00 0.00 0.00 77 1005.5
20260510084509 62 29 6.1 11.3 0.00 0.00 0.00 75 1005.7
20260510083005 63 34 4.3 7.8 0.00 0.00 0.00 74 1005.6
20260510081515 64 48 2.6 9.6 0.00 0.00 0.00 73 1005.7
20260510080100 64 32 4.3 10.4 0.00 0.00 0.00 72 1005.3
20260510074557 65 57 5.2 10.4 0.00 0.00 0.00 72 1004.8
20260510073102 66 62 6.1 13.0 0.00 0.00 0.00 71 1004.2
20260510071551 66 15 4.3 10.4 0.00 0.00 0.00 71 1004.3
20260510070047 67 44 3.5 10.4 0.00 0.00 0.00 70 1004.5
20260510064554 67 27 3.5 9.6 0.00 0.00 0.00 69 1004.5
20260510063046 68 44 6.1 13.0 0.00 0.00 0.00 68 1004.4
20260510061546 69 39 7.0 16.5 0.00 0.00 0.00 67 1004.3
20260510060046 69 30 8.7 14.8 0.00 0.00 0.00 65 1004.4
20260510054536 70 34 4.3 8.7 0.00 0.00 0.00 62 1004.8
20260510053040 71 43 5.2 10.4 0.00 0.00 0.00 61 1004.1
20260510051527 71 43 4.3 7.0 0.00 0.00 0.00 58 1004.0
20260510050023 72 38 4.3 7.0 0.00 0.00 0.00 56 1004.1
20260510044540 74 43 0.9 4.3 0.00 0.00 0.00 47 1004.2
20260510043021 74 236 0.0 7.8 0.00 0.00 0.00 39 1004.1
20260510041621 74 58 0.9 6.1 0.00 0.00 0.00 36 1003.8
20260510040034 75 37 0.0 0.0 0.00 0.00 0.00 30 1004.0
20260510034520 76 6 0.0 1.7 0.00 0.00 0.00 22 1003.8
20260510033023 80 63 4.3 8.7 0.00 0.00 0.00 19 1003.9
20260510031519 82 64 0.0 5.2 0.00 0.00 0.00 15 1003.3
20260510030018 82 326 2.6 13.9 0.00 0.00 0.00 15 1002.8
20260510024517 77 4 0.0 0.0 0.00 0.00 0.00 16 1002.6
20260510023017 79 55 0.0 3.5 0.00 0.00 0.00 15 1001.9
20260510021517 79 58 0.0 1.7 0.00 0.00 0.00 15 1001.5
20260510020021 80 68 0.0 0.0 0.00 0.00 0.00 15 1001.3
20260510014515 82 70 0.0 0.0 0.00 0.00 0.00 14 1001.0
20260510013015 84 49 0.9 3.5 0.00 0.00 0.00 13 1000.8
20260510011518 86 66 0.9 4.3 0.00 0.00 0.00 11 1000.7
20260510010020 91 52 0.0 0.0 0.00 0.00 0.00 11 1000.7
20260510004514 90 52 0.0 0.9 0.00 0.00 0.00 11 1000.5
20260510003012 90 283 0.0 6.1 0.00 0.00 0.00 10 1000.7
20260510001511 90 340 0.0 7.0 0.00 0.00 0.00 10 1000.7
20260510000016 91 340 0.9 4.3 0.00 0.00 0.00 11 1000.8
20260509234511 90 295 0.9 7.0 0.00 0.00 0.00 11 1000.9
20260509233009 90 250 5.2 8.7 0.00 0.00 0.00 9 1001.2
20260509231506 89 301 0.9 9.6 0.00 0.00 0.00 10 1001.2
20260509230009 91 290 5.2 11.3 0.00 0.00 0.00 9 1001.3
20260509224503 91 283 3.5 11.3 0.00 0.00 0.00 8 1001.2
20260509223005 90 355 5.2 11.3 0.00 0.00 0.00 9 1001.4
20260509221501 91 354 7.0 13.9 0.00 0.00 0.00 10 1001.5
20260509214558 90 247 6.1 13.9 0.00 0.00 0.00 13 1001.6
20260509213056 90 259 0.0 14.8 0.00 0.00 0.00 14 1001.6
20260509211551 90 278 3.5 15.6 0.00 0.00 0.00 14 1001.9
20260509210048 90 301 6.1 10.4 0.00 0.00 0.00 13 1002.1
20260509204547 90 314 6.1 15.6 0.00 0.00 0.00 14 1002.3
20260509203045 89 330 5.2 15.6 0.00 0.00 0.00 17 1002.6
20260509201555 90 253 4.3 12.2 0.00 0.00 0.00 16 1002.8
20260509200054 89 252 7.8 15.6 0.00 0.00 0.00 16 1003.0
20260509194540 89 214 1.7 13.0 0.00 0.00 0.00 18 1003.0
20260509193044 88 234 4.3 9.6 0.00 0.00 0.00 20 1003.4
20260509191535 88 210 7.0 13.9 0.00 0.00 0.00 20 1003.6